AUA21V LOWW-EDDF

Flight info

Callsign AUA21V
Flight time 1h 0m
Altitude 34000
Route LUGEM DCT SUBEN T161 DEBHI DEBHI1B
Aircraft A320/M-SDE3FGHIRWY/LB1

Departure

Time 2026-05-04 12:01
Airport Vienna International Airport (LOWW)

Arrival

Time 2026-05-04 13:02
Airport Frankfurt Main Airport (EDDF)
Time Latitude Longitude Altitude Speed Heading
2026-05-04 11:19 48.11867 16.56880 622 ft 0 kts 206°
2026-05-04 11:53 48.11877 16.56888 620 ft 3 kts 203°
2026-05-04 11:53 48.11900 16.56900 615 ft 3 kts 192°
2026-05-04 11:55 48.11937 16.56889 625 ft 0 kts 116°
2026-05-04 11:56 48.11937 16.56890 625 ft 0 kts 116°
2026-05-04 11:56 48.11932 16.56906 616 ft 4 kts 116°
2026-05-04 11:57 48.11909 16.56976 613 ft 11 kts 116°
2026-05-04 11:57 48.11873 16.57089 616 ft 13 kts 115°
2026-05-04 11:57 48.11850 16.57227 609 ft 14 kts 99°
2026-05-04 11:57 48.11813 16.57343 618 ft 11 kts 116°
2026-05-04 11:58 48.11819 16.57462 622 ft 9 kts 73°
2026-05-04 11:58 48.11837 16.57556 616 ft 9 kts 74°
2026-05-04 11:58 48.11850 16.57622 613 ft 3 kts 74°
2026-05-04 11:58 48.11855 16.57649 610 ft 4 kts 74°
2026-05-04 11:59 48.11861 16.57733 614 ft 11 kts 94°
2026-05-04 11:59 48.11829 16.57851 616 ft 12 kts 127°
2026-05-04 11:59 48.11789 16.57898 614 ft 7 kts 156°
2026-05-04 11:59 48.11778 16.57903 617 ft 1 kts 164°
2026-05-04 12:00 48.11766 16.57908 610 ft 3 kts 164°
2026-05-04 12:00 48.11656 16.57956 620 ft 47 kts 164°
2026-05-04 12:00 48.11119 16.58179 617 ft 110 kts 164°
2026-05-04 12:00 48.10225 16.58551 624 ft 158 kts 163°
2026-05-04 12:01 48.09116 16.59018 1154 ft 167 kts 162°
2026-05-04 12:01 48.08005 16.59469 1973 ft 168 kts 167°
2026-05-04 12:02 48.02641 16.50842 5838 ft 271 kts 273°
2026-05-04 12:03 48.02778 16.48072 6771 ft 273 kts 268°
2026-05-04 12:03 48.02780 16.45223 7691 ft 274 kts 266°
2026-05-04 12:03 48.02733 16.42359 8603 ft 277 kts 266°
2026-05-04 12:03 48.02684 16.39464 9463 ft 280 kts 266°
2026-05-04 12:04 48.02712 16.36536 10302 ft 285 kts 274°
2026-05-04 12:04 48.03047 16.33530 10735 ft 305 kts 277°
2026-05-04 12:04 48.03450 16.30303 11040 ft 325 kts 278°
2026-05-04 12:04 48.03888 16.26947 11681 ft 333 kts 278°
2026-05-04 12:05 48.04335 16.23579 12443 ft 337 kts 278°
2026-05-04 12:05 48.04795 16.20129 13200 ft 340 kts 278°
2026-05-04 12:05 48.05255 16.16637 13978 ft 343 kts 278°
2026-05-04 12:05 48.05716 16.13117 14657 ft 348 kts 278°
2026-05-04 12:06 48.06179 16.09561 15357 ft 351 kts 278°
2026-05-04 12:06 48.06644 16.05964 16040 ft 354 kts 278°
2026-05-04 12:06 48.07112 16.02341 16693 ft 357 kts 278°
2026-05-04 12:06 48.07576 15.98737 17352 ft 360 kts 278°
2026-05-04 12:07 48.08048 15.95040 18021 ft 362 kts 278°
2026-05-04 12:07 48.08519 15.91330 18584 ft 365 kts 278°
2026-05-04 12:07 48.08999 15.87584 19142 ft 368 kts 279°
2026-05-04 12:07 48.09559 15.83829 19693 ft 372 kts 281°
2026-05-04 12:08 48.10197 15.80063 20245 ft 375 kts 283°
2026-05-04 12:08 48.10866 15.76328 20818 ft 378 kts 283°
2026-05-04 12:08 48.11569 15.72455 21384 ft 382 kts 283°
2026-05-04 12:08 48.12251 15.68630 21942 ft 385 kts 283°
2026-05-04 12:09 48.12925 15.64756 22486 ft 388 kts 283°
2026-05-04 12:09 48.13596 15.60827 23045 ft 391 kts 283°
2026-05-04 12:09 48.14265 15.56867 23560 ft 395 kts 283°
2026-05-04 12:09 48.14940 15.52856 23997 ft 398 kts 283°
2026-05-04 12:10 48.15613 15.48831 24429 ft 400 kts 283°
2026-05-04 12:10 48.16289 15.44778 24857 ft 402 kts 283°
2026-05-04 12:10 48.16970 15.40705 25282 ft 404 kts 284°
2026-05-04 12:10 48.17620 15.36666 25693 ft 406 kts 282°
2026-05-04 12:11 48.18219 15.32574 26093 ft 408 kts 282°
2026-05-04 12:11 48.18794 15.28357 26488 ft 410 kts 281°
2026-05-04 12:11 48.19346 15.24168 26878 ft 412 kts 281°
2026-05-04 12:11 48.19897 15.19943 27263 ft 414 kts 281°
2026-05-04 12:12 48.20443 15.15785 27644 ft 416 kts 281°
2026-05-04 12:12 48.21024 15.11430 28033 ft 418 kts 281°
2026-05-04 12:12 48.21601 15.07149 28407 ft 420 kts 281°
2026-05-04 12:12 48.22174 15.02913 28776 ft 421 kts 281°
2026-05-04 12:13 48.22760 14.98598 29127 ft 423 kts 281°
2026-05-04 12:14 48.26842 14.67920 31239 ft 433 kts 281°
2026-05-04 12:15 48.27417 14.63508 31550 ft 433 kts 281°
2026-05-04 12:15 48.27992 14.59080 31947 ft 431 kts 281°
2026-05-04 12:15 48.28561 14.54702 32327 ft 429 kts 281°
2026-05-04 12:15 48.29133 14.50291 32693 ft 427 kts 281°
2026-05-04 12:16 48.29701 14.45920 33069 ft 426 kts 281°
2026-05-04 12:16 48.30265 14.41589 33450 ft 424 kts 281°
2026-05-04 12:16 48.30829 14.37239 33826 ft 422 kts 280°
2026-05-04 12:16 48.31376 14.33000 33984 ft 419 kts 280°
2026-05-04 12:17 48.32460 14.24513 34005 ft 409 kts 280°
2026-05-04 12:17 48.33518 14.16168 34002 ft 407 kts 280°
2026-05-04 12:18 48.34573 14.07783 34001 ft 407 kts 280°
2026-05-04 12:18 48.35619 13.99426 34000 ft 407 kts 280°
2026-05-04 12:19 48.36654 13.91119 33996 ft 407 kts 280°
2026-05-04 12:19 48.37687 13.82752 33996 ft 407 kts 279°
2026-05-04 12:20 48.38712 13.74441 33997 ft 407 kts 279°
2026-05-04 12:20 48.39739 13.66079 33997 ft 406 kts 279°
2026-05-04 12:21 48.40758 13.57725 33996 ft 406 kts 279°
2026-05-04 12:21 48.41772 13.49354 33996 ft 406 kts 279°
2026-05-04 12:22 48.42769 13.41005 33994 ft 406 kts 279°
2026-05-04 12:22 48.43920 13.32728 33995 ft 407 kts 287°
2026-05-04 12:23 48.46003 13.24770 34000 ft 408 kts 290°
2026-05-04 12:23 48.48097 13.16844 33998 ft 408 kts 290°
2026-05-04 12:24 48.50183 13.08878 33993 ft 408 kts 289°
2026-05-04 12:24 48.52258 13.00932 33993 ft 407 kts 289°
2026-05-04 12:25 48.54320 12.93032 33993 ft 407 kts 289°
2026-05-04 12:25 48.56396 12.85070 33990 ft 407 kts 289°
2026-05-04 12:26 48.58462 12.77133 33987 ft 407 kts 289°
2026-05-04 12:26 48.60529 12.69150 33986 ft 407 kts 289°
2026-05-04 12:27 48.62570 12.61224 33987 ft 408 kts 289°
2026-05-04 12:27 48.64611 12.53237 33981 ft 407 kts 288°
2026-05-04 12:28 48.66645 12.45250 33976 ft 407 kts 288°
2026-05-04 12:28 48.68690 12.37243 33981 ft 407 kts 288°
2026-05-04 12:29 48.70730 12.29250 33983 ft 407 kts 288°
2026-05-04 12:29 48.72740 12.21306 33980 ft 407 kts 288°
2026-05-04 12:30 48.74719 12.13283 33978 ft 405 kts 284°
2026-05-04 12:30 48.75781 12.04967 33984 ft 403 kts 277°
2026-05-04 12:31 48.76677 11.96631 33984 ft 402 kts 277°
2026-05-04 12:31 48.77585 11.88266 33971 ft 403 kts 277°
2026-05-04 12:32 48.78931 11.75696 33967 ft 403 kts 276°
2026-05-04 12:33 48.79811 11.67321 33967 ft 403 kts 276°
2026-05-04 12:33 48.80685 11.58965 33966 ft 403 kts 276°
2026-05-04 12:34 48.81557 11.50563 33966 ft 403 kts 276°
2026-05-04 12:34 48.82420 11.42165 33967 ft 403 kts 276°
2026-05-04 12:35 48.83277 11.33748 33986 ft 403 kts 276°
2026-05-04 12:35 48.84455 11.25468 33987 ft 408 kts 288°
2026-05-04 12:36 48.87388 11.18051 33985 ft 417 kts 308°
2026-05-04 12:36 48.91640 11.11971 33841 ft 422 kts 313°
2026-05-04 12:36 48.93795 11.08975 33560 ft 420 kts 313°
2026-05-04 12:37 48.95955 11.05964 33291 ft 418 kts 313°
2026-05-04 12:37 48.98064 11.03014 33032 ft 417 kts 313°
2026-05-04 12:37 49.00189 11.00031 32675 ft 413 kts 313°
2026-05-04 12:37 49.02293 10.97078 32151 ft 410 kts 313°
2026-05-04 12:38 49.04377 10.94150 31646 ft 407 kts 313°
2026-05-04 12:38 49.06454 10.91230 31147 ft 404 kts 313°
2026-05-04 12:38 49.08512 10.88328 30650 ft 402 kts 313°
2026-05-04 12:38 49.10562 10.85433 30154 ft 400 kts 313°
2026-05-04 12:39 49.12563 10.82605 29624 ft 398 kts 313°
2026-05-04 12:39 49.14587 10.79749 29152 ft 394 kts 313°
2026-05-04 12:39 49.16594 10.76910 28679 ft 390 kts 313°
2026-05-04 12:39 49.18569 10.74107 28226 ft 387 kts 313°
2026-05-04 12:40 49.20522 10.71296 27774 ft 383 kts 311°
2026-05-04 12:40 49.22404 10.68430 27344 ft 379 kts 310°
2026-05-04 12:40 49.24227 10.65547 26914 ft 376 kts 309°
2026-05-04 12:40 49.26022 10.62662 26498 ft 373 kts 309°
2026-05-04 12:41 49.27801 10.59794 26075 ft 369 kts 309°
2026-05-04 12:41 49.29565 10.56964 25656 ft 367 kts 310°
2026-05-04 12:41 49.31324 10.54160 25232 ft 364 kts 310°
2026-05-04 12:41 49.33057 10.51402 24807 ft 363 kts 310°
2026-05-04 12:42 49.34808 10.48619 24357 ft 361 kts 310°
2026-05-04 12:42 49.36466 10.45755 23895 ft 357 kts 303°
2026-05-04 12:42 49.37901 10.42616 23537 ft 361 kts 301°
2026-05-04 12:42 49.39343 10.39453 23132 ft 362 kts 302°
2026-05-04 12:43 49.40789 10.36293 22763 ft 361 kts 302°
2026-05-04 12:43 49.42231 10.33145 22399 ft 360 kts 302°
2026-05-04 12:43 49.43665 10.30006 22032 ft 358 kts 301°
2026-05-04 12:43 49.45082 10.26898 21667 ft 356 kts 301°
2026-05-04 12:44 49.46474 10.23839 21313 ft 355 kts 301°
2026-05-04 12:44 49.47895 10.20716 20951 ft 353 kts 301°
2026-05-04 12:44 49.49305 10.17612 20599 ft 352 kts 301°
2026-05-04 12:44 49.50698 10.14532 20233 ft 350 kts 301°
2026-05-04 12:45 49.52085 10.11462 19880 ft 349 kts 301°
2026-05-04 12:45 49.53467 10.08404 19525 ft 347 kts 301°
2026-05-04 12:45 49.54844 10.05359 19174 ft 346 kts 301°
2026-05-04 12:45 49.56214 10.02323 18825 ft 344 kts 301°
2026-05-04 12:46 49.57576 9.99302 18474 ft 343 kts 301°
2026-05-04 12:46 49.58931 9.96291 18099 ft 342 kts 301°
2026-05-04 12:46 49.60264 9.93327 17725 ft 340 kts 301°
2026-05-04 12:46 49.61671 9.90396 17364 ft 340 kts 308°
2026-05-04 12:47 49.63183 9.87610 16996 ft 337 kts 304°
2026-05-04 12:47 49.64533 9.84667 16636 ft 335 kts 300°
2026-05-04 12:47 49.65792 9.81663 16286 ft 333 kts 299°
2026-05-04 12:47 49.67030 9.78647 15926 ft 331 kts 300°
2026-05-04 12:48 49.68269 9.75663 15581 ft 330 kts 300°
2026-05-04 12:48 49.69526 9.72701 15230 ft 329 kts 301°
2026-05-04 12:48 49.70774 9.69816 14895 ft 327 kts 301°
2026-05-04 12:48 49.72050 9.66907 14558 ft 326 kts 302°
2026-05-04 12:49 49.73321 9.64025 14227 ft 325 kts 302°
2026-05-04 12:49 49.74594 9.61150 13892 ft 323 kts 302°
2026-05-04 12:49 49.75868 9.58286 13537 ft 322 kts 302°
2026-05-04 12:49 49.77129 9.55451 13155 ft 320 kts 302°
2026-05-04 12:50 49.78388 9.52618 12798 ft 318 kts 302°
2026-05-04 12:50 49.79638 9.49797 12433 ft 317 kts 302°
2026-05-04 12:50 49.80878 9.46991 12069 ft 315 kts 302°
2026-05-04 12:50 49.82109 9.44200 11714 ft 313 kts 302°
2026-05-04 12:51 49.83334 9.41421 11364 ft 311 kts 302°
2026-05-04 12:51 49.84559 9.38669 11016 ft 310 kts 305°
2026-05-04 12:51 49.86023 9.36213 10673 ft 310 kts 313°
2026-05-04 12:51 49.87045 9.34677 10448 ft 309 kts 314°
2026-05-04 12:52 49.89092 9.31646 9994 ft 305 kts 314°
2026-05-04 12:52 49.90613 9.29405 9611 ft 297 kts 314°
2026-05-04 12:52 49.92102 9.27221 9215 ft 292 kts 314°
2026-05-04 12:52 49.93569 9.25067 8843 ft 287 kts 314°
2026-05-04 12:53 49.94519 9.23674 8415 ft 284 kts 314°
2026-05-04 12:53 49.95944 9.21577 7766 ft 280 kts 314°
2026-05-04 12:53 49.97353 9.19508 7203 ft 276 kts 314°
2026-05-04 12:53 49.98748 9.17458 6717 ft 275 kts 314°
2026-05-04 12:54 50.00133 9.15414 6340 ft 273 kts 314°
2026-05-04 12:54 50.01509 9.13390 5947 ft 271 kts 314°
2026-05-04 12:54 50.02870 9.11387 5584 ft 269 kts 314°
2026-05-04 12:54 50.04227 9.09388 5230 ft 267 kts 314°
2026-05-04 12:55 50.05553 9.07428 4892 ft 266 kts 314°
2026-05-04 12:55 50.06889 9.05463 4583 ft 264 kts 314°
2026-05-04 12:55 50.08221 9.03511 4276 ft 263 kts 314°
2026-05-04 12:55 50.09551 9.01561 4038 ft 261 kts 312°
2026-05-04 12:56 50.10549 8.99265 3993 ft 257 kts 289°
2026-05-04 12:56 50.11104 8.96611 4000 ft 258 kts 284°
2026-05-04 12:56 50.11584 8.93913 3997 ft 257 kts 280°
2026-05-04 12:56 50.11618 8.91159 4003 ft 255 kts 258°
2026-05-04 12:57 50.11089 8.88569 3992 ft 242 kts 249°
2026-05-04 12:57 50.10536 8.86249 3947 ft 217 kts 249°
2026-05-04 12:57 50.10037 8.84136 3741 ft 206 kts 249°
2026-05-04 12:57 50.09548 8.82063 3493 ft 203 kts 249°
2026-05-04 12:58 50.09062 8.80001 3231 ft 203 kts 249°
2026-05-04 12:58 50.08574 8.77936 2956 ft 203 kts 249°
2026-05-04 12:58 50.08093 8.75896 2688 ft 197 kts 248°
2026-05-04 12:58 50.07628 8.73929 2464 ft 189 kts 249°
2026-05-04 12:59 50.07190 8.72076 2200 ft 176 kts 248°
2026-05-04 12:59 50.06782 8.70351 1955 ft 164 kts 248°
2026-05-04 12:59 50.06405 8.68763 1743 ft 149 kts 248°
2026-05-04 12:59 50.06059 8.67301 1588 ft 142 kts 247°
2026-05-04 13:00 50.05731 8.65920 1384 ft 136 kts 248°
2026-05-04 13:00 50.05405 8.64547 1202 ft 137 kts 249°
2026-05-04 13:00 50.05076 8.63164 1019 ft 137 kts 250°
2026-05-04 13:00 50.04746 8.61775 842 ft 137 kts 250°
2026-05-04 13:01 50.04420 8.60389 660 ft 134 kts 249°
2026-05-04 13:01 50.04095 8.59022 455 ft 133 kts 248°
2026-05-04 13:01 50.03781 8.57713 361 ft 118 kts 249°
2026-05-04 13:01 50.03556 8.56772 352 ft 68 kts 249°
2026-05-04 13:02 50.03447 8.56280 359 ft 39 kts 258°
2026-05-04 13:02 50.03445 8.56000 349 ft 20 kts 277°
2026-05-04 13:02 50.03461 8.55836 345 ft 9 kts 280°
2026-05-04 13:02 50.03473 8.55728 346 ft 10 kts 279°
2026-05-04 13:03 50.03486 8.55600 345 ft 15 kts 279°
2026-05-04 13:03 50.03483 8.55433 347 ft 17 kts 251°
2026-05-04 13:03 50.03437 8.55246 350 ft 20 kts 251°
2026-05-04 13:03 50.03387 8.55036 353 ft 22 kts 249°
2026-05-04 13:04 50.03337 8.54824 340 ft 22 kts 250°
2026-05-04 13:04 50.03289 8.54626 335 ft 13 kts 250°
2026-05-04 13:04 50.03292 8.54492 338 ft 14 kts 326°
2026-05-04 13:04 50.03337 8.54466 338 ft 2 kts 340°
2026-05-04 13:05 50.03351 8.54458 335 ft 3 kts 340°
2026-05-04 13:05 50.03385 8.54438 338 ft 11 kts 340°
2026-05-04 13:05 50.03474 8.54387 347 ft 16 kts 339°
2026-05-04 13:05 50.03589 8.54319 344 ft 13 kts 342°
2026-05-04 13:06 50.03664 8.54344 348 ft 11 kts 54°
2026-05-04 13:06 50.03736 8.54374 352 ft 12 kts 337°
2026-05-04 13:06 50.03813 8.54331 351 ft 12 kts 350°
2026-05-04 13:06 50.03872 8.54402 354 ft 13 kts 66°
2026-05-04 13:07 50.03909 8.54555 352 ft 16 kts 70°
2026-05-04 13:07 50.03948 8.54721 351 ft 16 kts 70°
2026-05-04 13:07 50.03984 8.54871 356 ft 15 kts 69°
2026-05-04 13:07 50.03943 8.54986 354 ft 14 kts 159°
2026-05-04 13:08 50.03851 8.55051 356 ft 15 kts 133°
2026-05-04 13:08 50.03868 8.55196 356 ft 14 kts 70°
2026-05-04 13:08 50.03906 8.55352 349 ft 16 kts 69°
2026-05-04 13:08 50.03948 8.55530 351 ft 19 kts 70°
2026-05-04 13:09 50.03992 8.55714 351 ft 17 kts 69°
2026-05-04 13:09 50.04032 8.55881 357 ft 16 kts 69°
2026-05-04 13:09 50.04069 8.56035 360 ft 16 kts 69°
2026-05-04 13:09 50.04115 8.56226 356 ft 21 kts 70°
2026-05-04 13:10 50.04167 8.56445 355 ft 21 kts 69°
2026-05-04 13:10 50.04215 8.56647 360 ft 19 kts 70°
2026-05-04 13:10 50.04271 8.56802 359 ft 15 kts 25°
2026-05-04 13:10 50.04375 8.56835 360 ft 18 kts 11°
2026-05-04 13:11 50.04506 8.56873 359 ft 19 kts 13°
2026-05-04 13:11 50.04618 8.56915 356 ft 17 kts 13°
2026-05-04 13:11 50.04707 8.56972 361 ft 12 kts 25°
2026-05-04 13:11 50.04779 8.57023 357 ft 11 kts 25°
2026-05-04 13:12 50.04845 8.57070 358 ft 5 kts 24°
2026-05-04 13:12 50.04870 8.57069 358 ft 3 kts 321°
2026-05-04 13:12 50.04883 8.57033 361 ft 5 kts 296°
2026-05-04 13:12 50.04894 8.56995 363 ft 2 kts 295°
2026-05-04 13:13 50.04895 8.56992 363 ft 0 kts 295°